Fayetteville, AR

6:38 AM CDT on July 22, 2017 (GMT -0500)
Drake

Weather History for KFYV - October, 2014

Change the Weather History Date:

Friday, October 24, 2014

  Actual Average Record
Temperature  
Mean Temperature 60 °F 56 °F  
Max Temperature 74 °F 68 °F 82 °F (2003)
Min Temperature 45 °F 43 °F 23 °F (1999)
Degree Days  
Heating Degree Days 5 10  
Month to date heating degree days 140 172  
Since 1 July heating degree days 176 224  
Cooling Degree Days 0 0  
Month to date cooling degree days 34 18  
Year to date cooling degree days 1226 1301  
Growing Degree Days 10 (Base 50)    
Moisture  
Dew Point 53 °F    
Average Humidity 81    
Maximum Humidity 100    
Minimum Humidity 61    
Precipitation  
Precipitation 0.00 in 0.13 in 0.64 in (1954)
Month to date precipitation 6.98 3.37  
Year to date precipitation 33.69 40.08  
Sea Level Pressure  
Sea Level Pressure 30.12 in    
Wind  
Wind Speed 4 mph (SSW)    
Max Wind Speed 14 mph    
Max Gust Speed 18 mph    
Visibility 8 miles    
Events      
T = Trace of Precipitation, MM = Missing Value Source: NWS Daily Summary

Daily Weather History Graph

Daily Weather History Graph

Search for Another Location

Airport or City:

Trip Planner

Search our weather history database for the weather conditions in past years. The results will help you decide how hot, cold, wet, or windy it might be!

Date:

Astronomy

Oct. 24, 2014 Rise Set
Actual Time 7:31 AM CDT 6:29 PM CDT
Civil Twilight 7:05 AM CDT 6:55 PM CDT
Nautical Twilight 6:35 AM CDT 7:25 PM CDT
Astronomical Twilight 6:05 AM CDT 7:55 PM CDT
Moon 8:10 AM CDT (10/24) 7:11 PM CDT (10/24)
Length of Visible Light 11h 50m
Length of Day
10h 57m
New Moon, 1% of the Moon is Illuminated
Oct 24
New Moon
Oct 30
First Quarter
Nov 6
Full
Nov 14
Last Quarter
Nov 22
New

Hourly Weather History & Observations

Time (CDT) Temp. Dew Point Humidity Pressure Visibility Wind Dir Wind Speed Gust Speed Precip Events Conditions
12:53 AM 48.9 °F 48.9 °F 100% 30.14 in 7.0 mi Calm Calm - N/A   Clear
1:29 AM 48.9 °F 48.9 °F 100% 30.14 in 2.5 mi Calm Calm - N/A   Clear
1:37 AM 48.9 °F 48.9 °F 100% 30.14 in 5.0 mi Calm Calm - N/A   Clear
1:53 AM 48.0 °F 48.0 °F 100% 30.14 in 2.5 mi Calm Calm - N/A   Clear
2:08 AM 48.9 °F 48.9 °F 100% 30.14 in 8.0 mi Calm Calm - N/A   Clear
2:53 AM 46.9 °F 46.9 °F 100% 30.14 in 5.0 mi Calm Calm - N/A   Clear
3:53 AM 46.9 °F 46.9 °F 100% 30.13 in 10.0 mi Calm Calm - N/A   Clear
4:33 AM 46.0 °F 46.0 °F 100% 30.13 in 2.0 mi Calm Calm - N/A   Clear
4:41 AM 46.0 °F 46.0 °F 100% 30.14 in 3.0 mi Calm Calm - N/A   Clear
4:53 AM 46.0 °F 46.0 °F 100% 30.13 in 9.0 mi Calm Calm - N/A   Clear
5:53 AM 46.9 °F 46.9 °F 100% 30.13 in 10.0 mi South 4.6 mph - N/A   Clear
6:53 AM 46.9 °F 46.0 °F 97% 30.14 in 10.0 mi Calm Calm - N/A   Clear
7:53 AM 46.9 °F 46.9 °F 100% 30.14 in 10.0 mi Calm Calm - N/A   Clear
8:53 AM 50.0 °F 48.9 °F 96% 30.16 in 10.0 mi Calm Calm - N/A   Clear
9:53 AM 61.0 °F 55.9 °F 83% 30.15 in 10.0 mi South 3.5 mph - N/A   Clear
10:53 AM 66.9 °F 57.0 °F 70% 30.14 in 10.0 mi SW 12.7 mph - N/A   Clear
11:53 AM 69.1 °F 57.0 °F 65% 30.14 in 10.0 mi SSW 10.4 mph - N/A   Clear
12:53 PM 72.0 °F 59.0 °F 64% 30.12 in 10.0 mi SSW 8.1 mph - N/A   Clear
1:53 PM 73.0 °F 59.0 °F 61% 30.09 in 10.0 mi SW 8.1 mph - N/A   Clear
2:53 PM 73.9 °F 60.1 °F 62% 30.07 in 10.0 mi SW 6.9 mph - N/A   Clear
3:53 PM 72.0 °F 59.0 °F 64% 30.06 in 10.0 mi SW 10.4 mph - N/A   Clear
4:53 PM 70.0 °F 61.0 °F 73% 30.07 in 10.0 mi South 8.1 mph - N/A   Clear
5:53 PM 68.0 °F 60.1 °F 76% 30.07 in 10.0 mi South 3.5 mph - N/A   Clear
6:53 PM 64.0 °F 59.0 °F 84% 30.07 in 10.0 mi South 3.5 mph - N/A   Clear
7:53 PM 60.1 °F 59.0 °F 96% 30.09 in 10.0 mi Calm Calm - N/A   Clear
8:53 PM 57.0 °F 57.0 °F 100% 30.08 in 10.0 mi Calm Calm - N/A   Clear
9:53 PM 57.0 °F 55.9 °F 96% 30.08 in 10.0 mi Calm Calm - N/A   Clear
10:53 PM 57.9 °F 57.0 °F 97% 30.09 in 10.0 mi Calm Calm - N/A   Clear
11:53 PM 57.9 °F 57.0 °F 97% 30.08 in 10.0 mi South 4.6 mph - N/A   Clear